Location: Unspecified
(0.0000°N, 0.0000°E)
Time: 13:19:31
(UTC+00:00)

N. Korean satellite - Pass Details

Date: 21 May 2019
Orbit: 457 x 507 km, 97.2° (Epoch: 23 August)

Event Time Altitude Azimuth Distance (km) Brightness Sun altitude
Rises 04:53:56 0° 44° (NE) 2,473 11.4 -14.7°
Reaches altitude 10° 04:57:00 10° 76° (ENE) 1,596 10.6 -14.0°
Maximum altitude 04:58:28 12° 101° (E) 1,459 9.9 -13.6°
Drops below altitude 10° 04:59:55 10° 127° (SE) 1,596 9.6 -13.3°
Sets 05:02:58 0° 158° (SSE) 2,472 10.2 -12.6°
